User: anonymous   Login
Location: Newark
(41.9000°N, 12.4833°E)
Time: 04:48:02
(UTC+00:00)
Language:

EO-88 - Orbit

View from above orbital plane
View from above orbital plane
View from above satellite
View from above satellite

Ground track
Ground track

The orbit data is extracted from the following two-line orbital elements,

1 42017U 17008BX  19288.34677835  .00001237  00000-0  51219-4 0  9996
2 42017  97.3917 354.1606 0007876 107.6357 252.5742 15.25789730148012
Epoch (UTC): 15 October 2019 08:19:21
Eccentricity: 0.0007876
inclination: 97.3917°
perigee height: 483 km
apogee height: 494 km
right ascension of ascending node: 354.1606°
argument of perigee: 107.6357°
revolutions per day: 15.25789730
mean anomaly at epoch: 252.5742°
orbit number at epoch: 14801

The dashed part of the orbit path shows where the satellite is in the earth's shadow,  

DLR